Location: Doughton Park
(36.4224°N, 81.1835°W)
Time: 15:34:26
(UTC-05:00)

ISS - All Passes

Search period start: 27 February 2017 00:00
Search period end: 09 March 2017 00:00
Orbit: 399 x 408 km, 51.6° (Epoch: 28 February)

Date Brightness Start Highest point End Pass type
(mag) Time Alt. Az. Time Alt. Az. Time Alt. Az.
27 Feb - 06:13:08 10° S 06:15:27 18° SE 06:17:46 10° E visible
27 Feb - 07:48:36 10° WSW 07:51:42 38° NW 07:54:48 10° NE daylight
27 Feb - 12:42:56 10° N 12:44:34 13° NNE 12:46:12 10° NE daylight
27 Feb - 14:18:11 10° NW 14:21:29 81° NE 14:24:45 10° SE daylight
28 Feb - 06:55:49 10° SW 06:59:06 78° NW 07:02:24 10° NE daylight
28 Feb - 08:34:27 10° NW 08:36:02 13° NNW 08:37:37 10° N daylight
28 Feb - 13:25:46 10° NW 13:28:53 39° NE 13:31:59 10° ESE daylight
28 Feb - 15:02:54 10° W 15:05:07 17° SW 15:07:19 10° S daylight
01 Mar - 06:03:25 10° SSW 06:06:34 47° SE 06:09:46 10° ENE visible
01 Mar - 07:40:46 10° WNW 07:43:13 19° NNW 07:45:41 10° NNE daylight
01 Mar - 12:33:31 10° NNW 12:36:12 22° NNE 12:38:52 10° E daylight
01 Mar - 14:09:40 10° WNW 14:12:43 35° SW 14:15:43 10° SSE daylight
02 Mar - 05:11:31 10° S 05:14:08 22° SE 05:16:46 10° ENE visible
02 Mar - 06:47:29 10° W 06:50:29 31° NW 06:53:28 10° NNE daylight
02 Mar - 11:41:26 10° N 11:43:24 15° NNE 11:45:21 10° ENE daylight
02 Mar - 13:16:55 10° NW 13:20:13 79° SW 13:23:28 10° SE daylight
03 Mar - 04:20:52 10° SE 04:21:46 11° SE 04:22:39 10° ESE visible
03 Mar - 05:54:34 10° WSW 05:57:48 61° NW 06:01:04 10° NE visible
03 Mar - 07:33:41 10° NW 07:34:50 11° NNW 07:35:59 10° N daylight
03 Mar - 10:50:02 10° NNE 10:50:30 10° NNE 10:50:58 10° NNE daylight
03 Mar - 12:24:24 10° NW 12:27:37 48° NE 12:30:48 10° ESE daylight
03 Mar - 14:02:01 10° W 14:03:44 14° SW 14:05:27 10° SSW daylight
04 Mar - 05:01:59 10° SW 05:05:13 61° SE 05:08:30 10° NE visible
04 Mar - 06:39:44 10° WNW 06:41:57 17° NNW 06:44:10 10° NNE daylight
04 Mar - 11:32:03 10° NNW 11:34:55 26° NNE 11:37:44 10° E daylight
04 Mar - 13:08:28 10° WNW 13:11:19 27° SW 13:14:10 10° SSE daylight
05 Mar - 04:09:52 10° SSW 04:12:43 28° SE 04:15:35 10° ENE visible
05 Mar - 05:46:18 10° W 05:49:08 26° NNW 05:52:00 10° NNE visible
05 Mar - 10:39:52 10° NNW 10:42:06 17° NNE 10:44:19 10° ENE daylight
05 Mar - 12:15:33 10° NW 12:18:48 61° SW 12:22:02 10° SE daylight
06 Mar - 03:18:33 10° SSE 03:20:17 14° SE 03:22:02 10° E night (unlit)
06 Mar - 04:53:13 10° WSW 04:56:25 48° NW 04:59:37 10° NE visible
06 Mar - 06:33:05 10° NNW 06:33:31 10° NNW 06:33:58 10° NNW daylight
06 Mar - 09:48:01 10° N 09:49:11 11° NNE 09:50:21 10° NE daylight
06 Mar - 11:22:57 10° NW 11:26:12 61° NE 11:29:27 10° ESE daylight
06 Mar - 13:01:25 10° WSW 13:02:14 11° SW 13:03:03 10° SW daylight
07 Mar - 04:00:30 10° SW 04:03:46 79° SE 04:07:03 10° NE visible
07 Mar - 05:38:38 10° WNW 05:40:35 15° NNW 05:42:32 10° N visible
07 Mar - 10:30:30 10° NNW 10:33:29 31° NE 10:36:28 10° E daylight
07 Mar - 12:07:11 10° WNW 12:09:49 22° SW 12:12:25 10° S daylight
08 Mar - 03:08:10 10° SSW 03:11:11 35° SE 03:14:14 10° ENE night (unlit)
08 Mar - 04:45:02 10° W 04:47:42 22° NNW 04:50:23 10° NNE visible
08 Mar - 09:38:13 10° NNW 09:40:40 19° NNE 09:43:07 10° ENE daylight
08 Mar - 11:14:07 10° WNW 11:17:18 47° SW 11:20:27 10° SSE daylight
